| time (UTC) | temp F | wind direction | speed MPH | gust MPH | rain 1hr in | rain 24hr in | rain mn in | humidity % | barometer mb |
| 20260904003014 | 75 | 53 | 2.0 | 6.0 | 0.00 | 0.43 | 0.43 | 80 | 1013.6 |
| 20260904002510 | 75 | 58 | 2.0 | 7.0 | 0.00 | 0.43 | 0.43 | 80 | 1013.6 |
| 20260904002018 | 75 | 49 | 2.0 | 7.0 | 0.00 | 0.43 | 0.43 | 80 | 1013.8 |
| 20260904001516 | 76 | 86 | 2.0 | 5.0 | 0.00 | 0.43 | 0.43 | 80 | 1013.7 |
| 20260904001004 | 76 | 82 | 2.0 | 6.0 | 0.00 | 0.43 | 0.43 | 79 | 1013.7 |
| 20260904000504 | 76 | 55 | 3.0 | 6.0 | 0.00 | 0.43 | 0.43 | 79 | 1013.8 |
| 20260904000007 | 76 | 165 | 1.0 | 4.0 | 0.00 | 0.43 | 0.43 | 79 | 1013.7 |
| 20260903235503 | 76 | 121 | 1.0 | 6.0 | 0.00 | 0.43 | 0.43 | 79 | 1013.9 |
| 20260903235003 | 76 | 37 | 4.0 | 6.0 | 0.00 | 0.43 | 0.43 | 78 | 1013.7 |
| 20260903234505 | 76 | 55 | 1.0 | 7.0 | 0.00 | 0.43 | 0.43 | 78 | 1013.7 |
| 20260903234003 | 76 | 30 | 3.0 | 7.0 | 0.00 | 0.43 | 0.43 | 78 | 1013.5 |
| 20260903233504 | 77 | 58 | 3.0 | 9.0 | 0.00 | 0.43 | 0.43 | 78 | 1013.5 |
| 20260903233016 | 77 | 102 | 3.0 | 8.0 | 0.00 | 0.43 | 0.43 | 78 | 1013.5 |
| 20260903232504 | 77 | 71 | 3.0 | 11.0 | 0.00 | 0.43 | 0.43 | 78 | 1013.8 |
| 20260903232003 | 77 | 96 | 2.0 | 11.0 | 0.00 | 0.43 | 0.43 | 77 | 1013.7 |
| 20260903231504 | 77 | 90 | 3.0 | 6.0 | 0.00 | 0.43 | 0.43 | 77 | 1013.5 |
| 20260903231002 | 77 | 72 | 1.0 | 5.0 | 0.00 | 0.43 | 0.43 | 76 | 1013.5 |
| 20260903230505 | 77 | 91 | 1.0 | 9.0 | 0.00 | 0.43 | 0.43 | 75 | 1013.3 |
| 20260903230012 | 78 | 173 | 3.0 | 9.0 | 0.00 | 0.43 | 0.43 | 75 | 1013.3 |
| 20260903225506 | 78 | 138 | 3.0 | 9.0 | 0.00 | 0.43 | 0.43 | 74 | 1013.4 |
| 20260903225004 | 79 | 22 | 3.0 | 9.0 | 0.00 | 0.43 | 0.43 | 76 | 1013.4 |
| 20260903224508 | 79 | 117 | 3.0 | 9.0 | 0.00 | 0.43 | 0.43 | 78 | 1013.5 |
| 20260903224004 | 79 | 56 | 2.0 | 8.0 | 0.00 | 0.43 | 0.43 | 79 | 1013.6 |
| 20260903223505 | 80 | 155 | 4.0 | 8.0 | 0.00 | 0.43 | 0.43 | 78 | 1013.5 |
| 20260903223010 | 80 | 94 | 2.0 | 5.0 | 0.00 | 0.43 | 0.43 | 79 | 1013.4 |
| 20260903222503 | 80 | 93 | 0.0 | 6.0 | 0.00 | 0.43 | 0.43 | 80 | 1013.4 |
| 20260903222003 | 79 | 63 | 2.0 | 7.0 | 0.00 | 0.43 | 0.43 | 81 | 1013.4 |
| 20260903221508 | 79 | 111 | 3.0 | 7.0 | 0.00 | 0.43 | 0.43 | 81 | 1013.4 |
| 20260903221003 | 80 | 115 | 3.0 | 7.0 | 0.00 | 0.43 | 0.43 | 81 | 1013.5 |
| 20260903220503 | 80 | 95 | 2.0 | 5.0 | 0.00 | 0.43 | 0.43 | 81 | 1013.6 |
| 20260903220008 | 80 | 68 | 2.0 | 5.0 | 0.00 | 0.43 | 0.43 | 80 | 1013.5 |
| 20260903215503 | 79 | 86 | 2.0 | 6.0 | 0.00 | 0.43 | 0.43 | 80 | 1013.7 |
| 20260903215005 | 80 | 68 | 3.0 | 6.0 | 0.00 | 0.43 | 0.43 | 80 | 1013.7 |
| 20260903214509 | 79 | 93 | 3.0 | 5.0 | 0.00 | 0.43 | 0.43 | 80 | 1013.6 |
| 20260903214003 | 80 | 54 | 3.0 | 5.0 | 0.00 | 0.43 | 0.43 | 79 | 1013.6 |
| 20260903213502 | 80 | 111 | 0.0 | 4.0 | 0.00 | 0.43 | 0.43 | 80 | 1013.5 |
| 20260903213010 | 80 | 136 | 2.0 | 3.0 | 0.00 | 0.43 | 0.43 | 79 | 1013.5 |
| 20260903212510 | 80 | 80 | 1.0 | 5.0 | 0.00 | 0.43 | 0.43 | 78 | 1013.4 |
| 20260903212004 | 80 | 53 | 2.0 | 5.0 | 0.00 | 0.43 | 0.43 | 78 | 1013.3 |
| 20260903211518 | 80 | 123 | 1.0 | 7.0 | 0.00 | 0.43 | 0.43 | 79 | 1013.3 |
| 20260903211006 | 79 | 24 | 3.0 | 7.0 | 0.00 | 0.43 | 0.43 | 80 | 1013.4 |
| 20260903210504 | 79 | 90 | 2.0 | 8.0 | 0.00 | 0.43 | 0.43 | 79 | 1013.5 |
| 20260903210013 | 79 | 131 | 3.0 | 8.0 | 0.00 | 0.43 | 0.43 | 79 | 1013.5 |
| 20260903205507 | 79 | 51 | 3.0 | 8.0 | 0.00 | 0.43 | 0.43 | 79 | 1013.6 |
| 20260903205005 | 79 | 56 | 3.0 | 9.0 | 0.00 | 0.43 | 0.43 | 79 | 1013.7 |
| 20260903204515 | 80 | 65 | 5.0 | 9.0 | 0.00 | 0.43 | 0.43 | 78 | 1013.8 |
| 20260903204006 | 80 | 51 | 5.0 | 8.0 | 0.00 | 0.43 | 0.43 | 78 | 1013.8 |
| 20260903203507 | 81 | 55 | 4.0 | 7.0 | 0.00 | 0.43 | 0.43 | 78 | 1013.8 |
| 20260903203026 | 81 | 68 | 1.0 | 3.0 | 0.00 | 0.43 | 0.43 | 76 | 1013.8 |
| 20260903202508 | 81 | 78 | 1.0 | 3.0 | 0.00 | 0.43 | 0.43 | 77 | 1013.8 |
| 20260903202004 | 80 | 90 | 0.0 | 4.0 | 0.00 | 0.43 | 0.43 | 79 | 1013.6 |
| 20260903201513 | 79 | 177 | 1.0 | 4.0 | 0.00 | 0.43 | 0.43 | 80 | 1013.6 |
| 20260903201007 | 79 | 173 | 0.0 | 3.0 | 0.00 | 0.43 | 0.43 | 80 | 1013.6 |
| 20260903200508 | 79 | 229 | 1.0 | 3.0 | 0.00 | 0.43 | 0.43 | 81 | 1013.6 |
| 20260903200012 | 79 | 160 | 0.0 | 2.0 | 0.00 | 0.43 | 0.43 | 83 | 1013.5 |
| 20260903195510 | 79 | 230 | 1.0 | 2.0 | 0.00 | 0.43 | 0.43 | 82 | 1013.5 |
| 20260903195007 | 79 | 194 | 0.0 | 3.0 | 0.00 | 0.43 | 0.43 | 82 | 1013.3 |
| 20260903194512 | 79 | 263 | 1.0 | 5.0 | 0.00 | 0.43 | 0.43 | 82 | 1013.4 |
| 20260903194010 | 79 | 192 | 2.0 | 5.0 | 0.00 | 0.43 | 0.43 | 81 | 1013.4 |
| 20260903193506 | 79 | 205 | 0.0 | 2.0 | 0.00 | 0.43 | 0.43 | 81 | 1013.5 |
| 20260903193020 | 79 | 298 | 0.0 | 2.0 | 0.00 | 0.43 | 0.43 | 82 | 1013.6 |
| 20260903192507 | 78 | 185 | 1.0 | 3.0 | 0.00 | 0.43 | 0.43 | 83 | 1013.5 |
| 20260903192007 | 78 | 172 | 1.0 | 4.0 | 0.00 | 0.43 | 0.43 | 82 | 1013.7 |
| 20260903191515 | 78 | 215 | 1.0 | 6.0 | 0.00 | 0.43 | 0.43 | 82 | 1013.9 |
| 20260903191007 | 77 | 254 | 3.0 | 6.0 | 0.00 | 0.43 | 0.43 | 83 | 1014.0 |
| 20260903190510 | 78 | 227 | 2.0 | 4.0 | 0.01 | 0.43 | 0.43 | 82 | 1013.9 |
| 20260903190018 | 77 | 231 | 2.0 | 4.0 | 0.01 | 0.43 | 0.43 | 81 | 1013.8 |
| 20260903185509 | 77 | 205 | 1.0 | 8.0 | 0.01 | 0.43 | 0.43 | 82 | 1013.9 |
| 20260903185011 | 77 | 242 | 2.0 | 8.0 | 0.01 | 0.43 | 0.43 | 82 | 1013.9 |
| 20260903184517 | 77 | 205 | 3.0 | 8.0 | 0.01 | 0.43 | 0.43 | 82 | 1014.1 |
| 20260903184010 | 77 | 281 | 3.0 | 5.0 | 0.01 | 0.43 | 0.43 | 83 | 1014.1 |
| 20260903183509 | 78 | 237 | 2.0 | 7.0 | 0.01 | 0.43 | 0.43 | 82 | 1014.1 |
| 20260903183020 | 78 | 175 | 2.0 | 7.0 | 0.01 | 0.43 | 0.43 | 84 | 1014.1 |
| 20260903182508 | 78 | 236 | 3.0 | 6.0 | 0.01 | 0.43 | 0.43 | 83 | 1014.1 |
| 20260903182008 | 77 | 234 | 3.0 | 4.0 | 0.03 | 0.43 | 0.43 | 87 | 1014.3 |
| 20260903181518 | 76 | 248 | 1.0 | 3.0 | 0.03 | 0.43 | 0.43 | 90 | 1014.2 |
| 20260903181003 | 76 | 160 | 0.0 | 3.0 | 0.03 | 0.43 | 0.43 | 90 | 1014.2 |
| 20260903180507 | 75 | 130 | 1.0 | 3.0 | 0.02 | 0.42 | 0.42 | 88 | 1014.3 |
| 20260903180023 | 75 | 292 | 1.0 | 4.0 | 0.02 | 0.42 | 0.42 | 88 | 1015.0 |
| 20260903175502 | 74 | 288 | 1.0 | 6.0 | 0.02 | 0.42 | 0.42 | 87 | 1014.6 |
| 20260903175007 | 74 | 334 | 2.0 | 6.0 | 0.02 | 0.42 | 0.42 | 87 | 1014.9 |
| 20260903174524 | 74 | 240 | 1.0 | 6.0 | 0.02 | 0.42 | 0.42 | 89 | 1014.7 |
| 20260903174009 | 74 | 211 | 1.0 | 6.0 | 0.03 | 0.42 | 0.42 | 91 | 1014.1 |
| 20260903173506 | 73 | 64 | 4.0 | 6.0 | 0.03 | 0.42 | 0.42 | 90 | 1013.7 |
| 20260903173023 | 73 | 64 | 0.0 | 3.0 | 0.03 | 0.42 | 0.42 | 91 | 1014.1 |
| 20260903172504 | 73 | 69 | 1.0 | 5.0 | 0.03 | 0.42 | 0.42 | 91 | 1014.2 |
| 20260903172007 | 72 | 235 | 2.0 | 5.0 | 0.01 | 0.40 | 0.40 | 91 | 1014.7 |
| 20260903171506 | 72 | 93 | 3.0 | 6.0 | 0.01 | 0.40 | 0.40 | 92 | 1013.8 |
| 20260903171003 | 72 | 146 | 2.0 | 6.0 | 0.02 | 0.40 | 0.40 | 92 | 1014.1 |
| 20260903170507 | 71 | 53 | 1.0 | 6.0 | 0.03 | 0.40 | 0.40 | 92 | 1014.5 |
| 20260903170007 | 71 | 148 | 1.0 | 4.0 | 0.04 | 0.40 | 0.40 | 92 | 1015.1 |
| 20260903165505 | 71 | 169 | 0.0 | 3.0 | 0.06 | 0.40 | 0.40 | 92 | 1015.2 |
| 20260903165009 | 71 | 201 | 1.0 | 3.0 | 0.08 | 0.40 | 0.40 | 92 | 1015.7 |
| 20260903164505 | 71 | 163 | 0.0 | 5.0 | 0.10 | 0.40 | 0.40 | 92 | 1015.7 |
| 20260903164006 | 71 | 150 | 3.0 | 8.0 | 0.10 | 0.39 | 0.39 | 92 | 1016.1 |
| 20260903163509 | 71 | 207 | 2.0 | 10.0 | 0.11 | 0.39 | 0.39 | 92 | 1016.5 |
| 20260903163005 | 71 | 215 | 3.0 | 10.0 | 0.13 | 0.39 | 0.39 | 92 | 1016.9 |
| 20260903162508 | 71 | 235 | 3.0 | 8.0 | 0.15 | 0.39 | 0.39 | 92 | 1017.2 |
| 20260903162011 | 71 | 263 | 2.0 | 3.0 | 0.17 | 0.39 | 0.39 | 92 | 1016.7 |
| 20260903161507 | 71 | 196 | 0.0 | 2.0 | 0.17 | 0.39 | 0.39 | 91 | 1016.5 |
| 20260903161010 | 71 | 160 | 0.0 | 5.0 | 0.17 | 0.38 | 0.38 | 91 | 1016.2 |
| 20260903160513 | 71 | 126 | 0.0 | 5.0 | 0.16 | 0.37 | 0.37 | 91 | 1016.0 |
| 20260903160006 | 71 | 74 | 2.0 | 5.0 | 0.24 | 0.36 | 0.36 | 91 | 1016.1 |
| 20260903155507 | 70 | 65 | 1.0 | 5.0 | 0.25 | 0.34 | 0.34 | 91 | 1016.1 |
| 20260903155011 | 70 | 57 | 3.0 | 11.0 | 0.29 | 0.32 | 0.32 | 90 | 1016.5 |
| 20260903154508 | 70 | 174 | 2.0 | 11.0 | 0.30 | 0.30 | 0.30 | 90 | 1017.4 |
| 20260903154006 | 70 | 128 | 7.0 | 11.0 | 0.29 | 0.29 | 0.29 | 90 | 1017.5 |
| 20260903153514 | 70 | 201 | 3.0 | 10.0 | 0.28 | 0.28 | 0.28 | 90 | 1016.6 |
| 20260903153011 | 70 | 275 | 4.0 | 10.0 | 0.26 | 0.26 | 0.26 | 90 | 1016.3 |
| 20260903152510 | 70 | 243 | 2.0 | 6.0 | 0.24 | 0.24 | 0.24 | 89 | 1016.2 |
| 20260903152012 | 70 | 238 | 2.0 | 8.0 | 0.22 | 0.22 | 0.22 | 89 | 1016.3 |
| 20260903151512 | 70 | 260 | 4.0 | 8.0 | 0.22 | 0.22 | 0.22 | 89 | 1016.3 |
| 20260903151011 | 70 | 257 | 2.0 | 11.0 | 0.21 | 0.21 | 0.21 | 88 | 1016.2 |
| 20260903150514 | 70 | 334 | 5.0 | 11.0 | 0.21 | 0.21 | 0.21 | 86 | 1016.6 |
| 20260903150023 | 70 | 80 | 2.0 | 8.0 | 0.12 | 0.12 | 0.12 | 84 | 1016.8 |
| 20260903145512 | 71 | 343 | 1.0 | 3.0 | 0.09 | 0.09 | 0.09 | 83 | 1016.4 |
| 20260903145019 | 71 | 92 | 2.0 | 4.0 | 0.03 | 0.03 | 0.03 | 79 | 1015.8 |
| 20260903144537 | 72 | 67 | 1.0 | 8.0 | 0.00 | 0.00 | 0.00 | 78 | 1015.7 |
| 20260903144013 | 72 | 352 | 3.0 | 6.0 | 0.00 | 0.00 | 0.00 | 76 | 1015.8 |
| 20260903143513 | 72 | 25 | 2.0 | 5.0 | 0.00 | 0.00 | 0.00 | 76 | 1015.8 |
| 20260903143017 | 73 | 287 | 1.0 | 5.0 | 0.00 | 0.00 | 0.00 | 76 | 1015.7 |
| 20260903142510 | 73 | 17 | 1.0 | 6.0 | 0.00 | 0.00 | 0.00 | 76 | 1015.8 |
| 20260903142003 | 73 | 352 | 2.0 | 14.0 | 0.00 | 0.00 | 0.00 | 76 | 1015.8 |
| 20260903141515 | 72 | 70 | 4.0 | 14.0 | 0.00 | 0.00 | 0.00 | 78 | 1015.4 |
| 20260903141016 | 72 | 62 | 10.0 | 15.0 | 0.00 | 0.00 | 0.00 | 80 | 1015.3 |
| 20260903140503 | 72 | 38 | 5.0 | 15.0 | 0.00 | 0.00 | 0.00 | 81 | 1015.4 |
| 20260903140022 | 72 | 67 | 4.0 | 15.0 | 0.00 | 0.00 | 0.00 | 81 | 1015.6 |
| 20260903135513 | 72 | 66 | 3.0 | 14.0 | 0.00 | 0.00 | 0.00 | 82 | 1015.6 |
| 20260903135004 | 72 | 103 | 2.0 | 14.0 | 0.00 | 0.00 | 0.00 | 80 | 1015.6 |
| 20260903134518 | 73 | 9 | 5.0 | 14.0 | 0.00 | 0.00 | 0.00 | 78 | 1015.4 |
| 20260903134012 | 73 | 168 | 4.0 | 14.0 | 0.00 | 0.00 | 0.00 | 77 | 1015.6 |
| 20260903133505 | 73 | 77 | 9.0 | 14.0 | 0.00 | 0.00 | 0.00 | 76 | 1015.5 |
| 20260903133018 | 74 | 92 | 6.0 | 11.0 | 0.00 | 0.00 | 0.00 | 76 | 1015.6 |
| 20260903132515 | 75 | 92 | 3.0 | 13.0 | 0.00 | 0.00 | 0.00 | 76 | 1015.6 |
| 20260903132006 | 75 | 315 | 4.0 | 13.0 | 0.00 | 0.00 | 0.00 | 78 | 1015.5 |
| 20260903131520 | 76 | 329 | 6.0 | 11.0 | 0.00 | 0.00 | 0.00 | 81 | 1015.3 |
| 20260903131015 | 76 | 74 | 3.0 | 11.0 | 0.00 | 0.00 | 0.00 | 86 | 1015.0 |
| 20260903130506 | 76 | 33 | 6.0 | 11.0 | 0.00 | 0.00 | 0.00 | 87 | 1014.9 |
| 20260903130023 | 76 | 337 | 5.0 | 11.0 | 0.00 | 0.00 | 0.00 | 86 | 1014.4 |
| 20260903125517 | 76 | 275 | 1.0 | 4.0 | 0.00 | 0.00 | 0.00 | 87 | 1013.8 |
| 20260903125003 | 76 | 227 | 1.0 | 4.0 | 0.00 | 0.00 | 0.00 | 87 | 1013.5 |
| 20260903124529 | 77 | 307 | 0.0 | 2.0 | 0.00 | 0.00 | 0.00 | 86 | 1013.4 |
| 20260903124015 | 77 | 218 | 0.0 | 2.0 | 0.00 | 0.00 | 0.00 | 87 | 1013.4 |
| 20260903123506 | 76 | 194 | 0.0 | 2.0 | 0.00 | 0.00 | 0.00 | 88 | 1013.5 |
| 20260903123025 | 76 | 205 | 0.0 | 2.0 | 0.00 | 0.00 | 0.00 | 89 | 1013.5 |
| 20260903122516 | 75 | 232 | 0.0 | 2.0 | 0.00 | 0.00 | 0.00 | 89 | 1013.4 |
| 20260903122010 | 75 | 196 | 1.0 | 2.0 | 0.00 | 0.00 | 0.00 | 90 | 1013.4 |
| 20260903121532 | 75 | 291 | 0.0 | 2.0 | 0.00 | 0.00 | 0.00 | 90 | 1013.5 |
| 20260903121016 | 74 | 223 | 0.0 | 2.0 | 0.00 | 0.00 | 0.00 | 90 | 1013.5 |
| 20260903120509 | 74 | 213 | 0.0 | 2.0 | 0.00 | 0.00 | 0.00 | 91 | 1013.6 |
| 20260903120045 | 74 | 201 | 0.0 | 2.0 | 0.00 | 0.00 | 0.00 | 91 | 1013.5 |
| 20260903115515 | 74 | 220 | 0.0 | 2.0 | 0.00 | 0.00 | 0.00 | 91 | 1013.6 |
| 20260903115013 | 74 | 230 | 0.0 | 1.0 | 0.00 | 0.00 | 0.00 | 91 | 1013.6 |
| 20260903114532 | 73 | 232 | 0.0 | 0.0 | 0.00 | 0.00 | 0.00 | 91 | 1013.5 |
| 20260903114005 | 73 | 185 | 0.0 | 0.0 | 0.00 | 0.00 | 0.00 | 91 | 1013.5 |
| 20260903113513 | 73 | 190 | 0.0 | 0.0 | 0.00 | 0.00 | 0.00 | 91 | 1013.6 |
| 20260903113004 | 73 | 194 | 0.0 | 0.0 | 0.00 | 0.00 | 0.00 | 91 | 1013.6 |
| 20260903112504 | 73 | 209 | 0.0 | 0.0 | 0.00 | 0.00 | 0.00 | 91 | 1013.7 |
| 20260903112023 | 73 | 213 | 0.0 | 0.0 | 0.00 | 0.00 | 0.00 | 91 | 1013.7 |
| 20260903111508 | 73 | 218 | 0.0 | 0.0 | 0.00 | 0.00 | 0.00 | 91 | 1013.7 |
| 20260903111010 | 73 | 65 | 0.0 | 0.0 | 0.00 | 0.00 | 0.00 | 91 | 1013.6 |
| 20260903110513 | 74 | 65 | 0.0 | 0.0 | 0.00 | 0.00 | 0.00 | 91 | 1013.6 |
| 20260903110004 | 74 | 65 | 0.0 | 0.0 | 0.00 | 0.00 | 0.00 | 91 | 1013.5 |
| 20260903105507 | 74 | 65 | 0.0 | 0.0 | 0.00 | 0.00 | 0.00 | 91 | 1013.4 |
| 20260903105014 | 74 | 65 | 0.0 | 0.0 | 0.00 | 0.00 | 0.00 | 90 | 1013.5 |
| 20260903104508 | 74 | 65 | 0.0 | 0.0 | 0.00 | 0.00 | 0.00 | 91 | 1013.3 |
| 20260903104009 | 74 | 65 | 0.0 | 2.0 | 0.00 | 0.00 | 0.00 | 90 | 1013.3 |
| 20260903103513 | 74 | 65 | 0.0 | 2.0 | 0.00 | 0.00 | 0.00 | 90 | 1013.3 |
| 20260903103006 | 74 | 65 | 0.0 | 2.0 | 0.00 | 0.00 | 0.00 | 90 | 1013.3 |
| 20260903102510 | 74 | 65 | 0.0 | 2.0 | 0.00 | 0.00 | 0.00 | 90 | 1013.4 |
| 20260903102014 | 74 | 55 | 0.0 | 2.0 | 0.00 | 0.00 | 0.00 | 91 | 1013.4 |
| 20260903101521 | 74 | 54 | 0.0 | 2.0 | 0.00 | 0.00 | 0.00 | 91 | 1013.4 |
| 20260903101015 | 74 | 54 | 0.0 | 2.0 | 0.00 | 0.00 | 0.00 | 91 | 1013.3 |
| 20260903100515 | 74 | 51 | 0.0 | 2.0 | 0.00 | 0.00 | 0.00 | 91 | 1013.4 |
| 20260903100021 | 74 | 39 | 0.0 | 2.0 | 0.00 | 0.00 | 0.00 | 91 | 1013.5 |
| 20260903095509 | 74 | 58 | 1.0 | 2.0 | 0.00 | 0.00 | 0.00 | 91 | 1013.5 |
| 20260903095014 | 74 | 53 | 1.0 | 2.0 | 0.00 | 0.00 | 0.00 | 91 | 1013.5 |
| 20260903094525 | 74 | 54 | 1.0 | 2.0 | 0.00 | 0.00 | 0.00 | 91 | 1013.5 |
| 20260903094012 | 74 | 73 | 0.0 | 2.0 | 0.00 | 0.00 | 0.00 | 91 | 1013.7 |
| 20260903093515 | 74 | 79 | 0.0 | 2.0 | 0.00 | 0.00 | 0.00 | 91 | 1013.7 |
| 20260903093017 | 74 | 105 | 0.0 | 2.0 | 0.00 | 0.00 | 0.00 | 91 | 1013.6 |
| 20260903092511 | 74 | 58 | 0.0 | 2.0 | 0.00 | 0.00 | 0.00 | 91 | 1013.6 |
| 20260903092015 | 74 | 56 | 2.0 | 3.0 | 0.00 | 0.00 | 0.00 | 91 | 1013.5 |
| 20260903091516 | 74 | 62 | 2.0 | 3.0 | 0.00 | 0.00 | 0.00 | 91 | 1013.5 |
| 20260903091012 | 74 | 51 | 1.0 | 4.0 | 0.00 | 0.00 | 0.00 | 91 | 1013.5 |
| 20260903090517 | 74 | 46 | 3.0 | 4.0 | 0.00 | 0.00 | 0.00 | 91 | 1013.5 |
| 20260903090019 | 75 | 69 | 2.0 | 3.0 | 0.00 | 0.00 | 0.00 | 91 | 1013.5 |
| 20260903085514 | 75 | 69 | 2.0 | 3.0 | 0.00 | 0.00 | 0.00 | 91 | 1013.4 |
| 20260903085019 | 75 | 54 | 0.0 | 2.0 | 0.00 | 0.00 | 0.00 | 91 | 1013.4 |
| 20260903084519 | 75 | 64 | 1.0 | 2.0 | 0.00 | 0.00 | 0.00 | 91 | 1013.4 |
| 20260903084016 | 75 | 68 | 1.0 | 2.0 | 0.00 | 0.00 | 0.00 | 91 | 1013.4 |
| 20260903083507 | 76 | 72 | 0.0 | 2.0 | 0.00 | 0.00 | 0.00 | 91 | 1013.4 |
| 20260903083034 | 76 | 71 | 0.0 | 2.0 | 0.00 | 0.00 | 0.00 | 91 | 1013.5 |
| 20260903082517 | 76 | 59 | 0.0 | 2.0 | 0.00 | 0.00 | 0.00 | 91 | 1013.5 |
| 20260903082003 | 76 | 57 | 0.0 | 1.0 | 0.00 | 0.00 | 0.00 | 91 | 1013.4 |
| 20260903081526 | 76 | 57 | 0.0 | 0.0 | 0.00 | 0.00 | 0.00 | 91 | 1013.4 |
| 20260903081016 | 76 | 58 | 0.0 | 2.0 | 0.00 | 0.00 | 0.00 | 91 | 1013.4 |
| 20260903080505 | 76 | 57 | 0.0 | 2.0 | 0.00 | 0.00 | 0.00 | 91 | 1013.4 |
| 20260903080025 | 76 | 57 | 0.0 | 2.0 | 0.00 | 0.00 | 0.00 | 91 | 1013.4 |
| 20260903075518 | 76 | 76 | 0.0 | 2.0 | 0.00 | 0.00 | 0.00 | 91 | 1013.4 |
| 20260903075009 | 76 | 44 | 0.0 | 2.0 | 0.00 | 0.00 | 0.00 | 91 | 1013.5 |
| 20260903074526 | 76 | 53 | 0.0 | 2.0 | 0.00 | 0.00 | 0.00 | 91 | 1013.5 |
| 20260903074017 | 76 | 53 | 0.0 | 1.0 | 0.00 | 0.00 | 0.00 | 90 | 1013.6 |
| 20260903073507 | 76 | 55 | 0.0 | 2.0 | 0.00 | 0.00 | 0.00 | 91 | 1013.5 |
| 20260903073035 | 76 | 56 | 0.0 | 2.0 | 0.00 | 0.00 | 0.00 | 91 | 1013.5 |
| 20260903072515 | 76 | 79 | 0.0 | 2.0 | 0.00 | 0.00 | 0.00 | 91 | 1013.5 |
| 20260903072008 | 76 | 103 | 0.0 | 0.0 | 0.00 | 0.00 | 0.00 | 91 | 1013.5 |
| 20260903071533 | 76 | 183 | 0.0 | 2.0 | 0.00 | 0.00 | 0.00 | 90 | 1013.5 |
| 20260903071020 | 76 | 193 | 0.0 | 2.0 | 0.00 | 0.00 | 0.00 | 90 | 1013.6 |
| 20260903070513 | 76 | 223 | 0.0 | 0.0 | 0.00 | 0.00 | 0.00 | 91 | 1013.5 |
| 20260903070030 | 76 | 223 | 0.0 | 0.0 | 0.00 | 0.00 | 0.00 | 91 | 1013.4 |
| 20260903065516 | 76 | 238 | 0.0 | 2.0 | 0.00 | 0.00 | 0.00 | 91 | 1013.5 |
| 20260903065010 | 76 | 245 | 0.0 | 2.0 | 0.00 | 0.00 | 0.00 | 91 | 1013.6 |
| 20260903064531 | 76 | 238 | 0.0 | 2.0 | 0.00 | 0.00 | 0.00 | 91 | 1013.6 |
| 20260903064016 | 76 | 238 | 0.0 | 2.0 | 0.00 | 0.00 | 0.00 | 91 | 1013.6 |
| 20260903063513 | 76 | 225 | 0.0 | 2.0 | 0.00 | 0.00 | 0.00 | 91 | 1013.6 |
| 20260903063031 | 76 | 246 | 0.0 | 2.0 | 0.00 | 0.00 | 0.00 | 91 | 1013.7 |
| 20260903062516 | 76 | 236 | 0.0 | 1.0 | 0.00 | 0.00 | 0.00 | 90 | 1013.7 |
| 20260903062011 | 76 | 224 | 0.0 | 2.0 | 0.00 | 0.00 | 0.00 | 90 | 1013.7 |
| 20260903061531 | 76 | 239 | 0.0 | 2.0 | 0.00 | 0.00 | 0.00 | 90 | 1013.7 |
| 20260903061024 | 76 | 197 | 0.0 | 0.0 | 0.00 | 0.00 | 0.00 | 90 | 1013.7 |
| 20260903060511 | 76 | 200 | 0.0 | 0.0 | 0.00 | 0.00 | 0.00 | 90 | 1013.7 |
| 20260903060031 | 76 | 200 | 0.0 | 0.0 | 0.00 | 0.00 | 0.00 | 91 | 1013.8 |
| 20260903055517 | 76 | 205 | 0.0 | 0.0 | 0.00 | 0.00 | 0.00 | 91 | 1013.8 |
| 20260903055017 | 76 | 185 | 0.0 | 0.0 | 0.00 | 0.00 | 0.00 | 91 | 1013.8 |
| 20260903054532 | 76 | 174 | 0.0 | 0.0 | 0.00 | 0.00 | 0.00 | 91 | 1013.7 |
| 20260903054012 | 76 | 192 | 0.0 | 2.0 | 0.00 | 0.00 | 0.00 | 91 | 1013.8 |
| 20260903053514 | 76 | 205 | 0.0 | 2.0 | 0.00 | 0.00 | 0.00 | 91 | 1013.8 |
| 20260903053037 | 76 | 225 | 0.0 | 2.0 | 0.00 | 0.00 | 0.00 | 91 | 1013.8 |
| 20260903052507 | 76 | 229 | 0.0 | 2.0 | 0.00 | 0.00 | 0.00 | 91 | 1013.7 |
| 20260903052020 | 76 | 221 | 0.0 | 2.0 | 0.00 | 0.00 | 0.00 | 91 | 1013.8 |
| 20260903051552 | 76 | 216 | 0.0 | 2.0 | 0.00 | 0.00 | 0.00 | 91 | 1013.9 |
| 20260903051009 | 77 | 219 | 1.0 | 2.0 | 0.00 | 0.00 | 0.00 | 91 | 1014.0 |
| 20260903050502 | 77 | 221 | 1.0 | 2.0 | 0.00 | 0.00 | 0.00 | 91 | 1013.9 |
| 20260903050014 | 77 | 226 | 0.0 | 2.0 | 0.00 | 0.00 | 0.00 | 91 | 1013.9 |
| 20260903045503 | 77 | 224 | 1.0 | 2.0 | 0.00 | 0.00 | 0.00 | 91 | 1013.9 |
| 20260903045003 | 77 | 227 | 0.0 | 2.0 | 0.00 | 0.00 | 0.00 | 91 | 1013.9 |
| 20260903044512 | 77 | 229 | 1.0 | 3.0 | 0.00 | 0.00 | 0.00 | 90 | 1013.8 |
| 20260903044002 | 77 | 237 | 1.0 | 3.0 | 0.00 | 0.00 | 0.00 | 90 | 1013.8 |
| 20260903043504 | 77 | 217 | 1.0 | 2.0 | 0.00 | 0.00 | 0.00 | 90 | 1013.7 |
| 20260903043035 | 77 | 224 | 1.0 | 2.0 | 0.00 | 0.00 | 0.00 | 90 | 1013.7 |
| 20260903042504 | 77 | 250 | 0.0 | 2.0 | 0.00 | 0.00 | 0.00 | 89 | 1013.6 |
| 20260903042003 | 77 | 220 | 0.0 | 2.0 | 0.00 | 0.00 | 0.00 | 89 | 1013.5 |
| 20260903041521 | 77 | 235 | 0.0 | 2.0 | 0.00 | 0.00 | 0.00 | 89 | 1013.5 |
| 20260903041002 | 77 | 225 | 0.0 | 2.0 | 0.00 | 0.00 | 0.00 | 89 | 1013.4 |
| 20260903040504 | 77 | 234 | 0.0 | 2.0 | 0.00 | 0.00 | 0.00 | 88 | 1013.4 |
| 20260903040021 | 78 | 235 | 0.0 | 2.0 | 0.00 | 0.00 | 0.00 | 88 | 1013.4 |
| 20260903035502 | 78 | 221 | 0.0 | 2.0 | 0.00 | 0.00 | 0.00 | 88 | 1013.4 |
| 20260903035005 | 78 | 234 | 0.0 | 2.0 | 0.00 | 0.00 | 0.00 | 88 | 1013.4 |
| 20260903034534 | 78 | 229 | 1.0 | 2.0 | 0.00 | 0.00 | 0.00 | 88 | 1013.3 |
| 20260903034002 | 78 | 240 | 0.0 | 2.0 | 0.00 | 0.00 | 0.00 | 87 | 1013.3 |
| 20260903033503 | 78 | 232 | 1.0 | 2.0 | 0.00 | 0.00 | 0.00 | 87 | 1013.4 |
| 20260903033024 | 78 | 228 | 1.0 | 2.0 | 0.00 | 0.00 | 0.00 | 87 | 1013.4 |
| 20260903032506 | 78 | 227 | 0.0 | 2.0 | 0.00 | 0.00 | 0.00 | 87 | 1013.4 |
| 20260903032009 | 78 | 212 | 1.0 | 2.0 | 0.00 | 0.00 | 0.00 | 86 | 1013.3 |
| 20260903031523 | 78 | 221 | 0.0 | 2.0 | 0.00 | 0.00 | 0.00 | 86 | 1013.3 |
| 20260903031002 | 79 | 229 | 0.0 | 2.0 | 0.00 | 0.00 | 0.00 | 86 | 1013.3 |
| 20260903030504 | 79 | 221 | 0.0 | 2.0 | 0.00 | 0.00 | 0.00 | 86 | 1013.2 |
| 20260903030004 | 79 | 230 | 0.0 | 2.0 | 0.00 | 0.00 | 0.00 | 86 | 1013.3 |
| 20260903025503 | 79 | 229 | 0.0 | 2.0 | 0.00 | 0.00 | 0.00 | 85 | 1013.3 |
| 20260903025007 | 79 | 235 | 0.0 | 2.0 | 0.00 | 0.00 | 0.00 | 85 | 1013.4 |
| 20260903024506 | 79 | 231 | 0.0 | 2.0 | 0.00 | 0.00 | 0.00 | 85 | 1013.4 |
| 20260903024004 | 79 | 230 | 0.0 | 2.0 | 0.00 | 0.00 | 0.00 | 85 | 1013.4 |
| 20260903023507 | 79 | 222 | 0.0 | 2.0 | 0.00 | 0.00 | 0.00 | 84 | 1013.4 |
| 20260903023004 | 80 | 217 | 0.0 | 2.0 | 0.00 | 0.00 | 0.00 | 84 | 1013.3 |
| 20260903022503 | 80 | 222 | 0.0 | 2.0 | 0.00 | 0.00 | 0.00 | 83 | 1013.3 |
| 20260903022008 | 80 | 231 | 0.0 | 2.0 | 0.00 | 0.00 | 0.00 | 83 | 1013.3 |
| 20260903021503 | 80 | 241 | 0.0 | 2.0 | 0.00 | 0.00 | 0.00 | 84 | 1013.3 |
| 20260903021003 | 80 | 238 | 0.0 | 2.0 | 0.00 | 0.00 | 0.00 | 83 | 1013.3 |
| 20260903020510 | 80 | 252 | 0.0 | 2.0 | 0.00 | 0.00 | 0.00 | 82 | 1013.2 |
| 20260903020011 | 81 | 219 | 0.0 | 2.0 | 0.00 | 0.00 | 0.00 | 81 | 1013.2 |
| 20260903015505 | 81 | 269 | 0.0 | 2.0 | 0.00 | 0.00 | 0.00 | 81 | 1013.1 |
| 20260903015009 | 81 | 332 | 0.0 | 0.0 | 0.00 | 0.00 | 0.00 | 81 | 1013.1 |
| 20260903014503 | 81 | 333 | 0.0 | 0.0 | 0.00 | 0.00 | 0.00 | 80 | 1013.1 |
| 20260903014007 | 82 | 333 | 0.0 | 2.0 | 0.00 | 0.00 | 0.00 | 79 | 1013.1 |
| 20260903013511 | 82 | 333 | 0.0 | 2.0 | 0.00 | 0.00 | 0.00 | 78 | 1013.0 |
| 20260903013009 | 82 | 338 | 0.0 | 2.0 | 0.00 | 0.00 | 0.00 | 78 | 1013.1 |
| 20260903012506 | 82 | 339 | 0.0 | 2.0 | 0.00 | 0.00 | 0.00 | 78 | 1012.9 |
| 20260903012012 | 82 | 350 | 1.0 | 2.0 | 0.00 | 0.00 | 0.00 | 78 | 1012.8 |
| 20260903011513 | 82 | 327 | 1.0 | 2.0 | 0.00 | 0.00 | 0.00 | 78 | 1012.8 |
| 20260903011007 | 82 | 360 | 1.0 | 2.0 | 0.00 | 0.00 | 0.00 | 78 | 1012.8 |
| 20260903010511 | 82 | 281 | 0.0 | 2.0 | 0.00 | 0.00 | 0.00 | 78 | 1012.7 |
| 20260903010007 | 82 | 250 | 0.0 | 2.0 | 0.00 | 0.00 | 0.00 | 77 | 1012.7 |
| 20260903005506 | 82 | 252 | 0.0 | 2.0 | 0.00 | 0.00 | 0.00 | 77 | 1012.6 |
| 20260903005013 | 83 | 258 | 1.0 | 2.0 | 0.00 | 0.00 | 0.00 | 77 | 1012.6 |
| 20260903004508 | 83 | 251 | 0.0 | 2.0 | 0.00 | 0.00 | 0.00 | 76 | 1012.6 |
| 20260903004007 | 83 | 249 | 0.0 | 2.0 | 0.00 | 0.00 | 0.00 | 75 | 1012.5 |
| 20260903003516 | 84 | 242 | 0.0 | 2.0 | 0.00 | 0.00 | 0.00 | 75 | 1012.4 |